STARLINK-35322, 66332

Orbit data source: Space-Track

STARLINK-35322, 66332 is a payload satellite owned by SpaceX/Seattle (US) in LEO that was launched on Thu, 06 Nov 2025 UTC via an FALCON 9 launch vehicle from the Air Force Eastern Test Range (AFETR). Payload-class satellites include a variety of spacecraft equipped with specific instruments for various scientific and technological missions. These include communications satellites like Starlink; space stations such as the ISS; scientific satellites like the Hubble; Earth observation satellites from companies like Planet Labs, Umbra, and HawkEye 360; GPS; miniature CubeSats for education and research; and military/defense satellites.

Loading next visibility...
Identifier
66332, 2025-253P
Orbit
LEO
Country
Flag of USUS
Related business
Manufacturer
SpaceX/Seattle
Mission
Operational Commercial Communications
Bus & Motor
STARLINK V2MO, Unknown motor
Mass
575 kg wet, ~530 kg dry
Launch date (UTC)
2025-11-06 (7 months ago)
Launch vehicle
FALCON 9
Launch site
Air Force Eastern Test Range (AFETR)
Object type
Payload
Rocket body
Debris
Shape & HBR
Box + 2 Pan, 17.7 m
Radar Cross Section
36.964 m², Large (>1 m²)

Expand to show TLE details & history
Last TLE update: 7 hours ago

TLE from 7 hours ago
0 STARLINK-35322
1 66332U 25253P   26170.87182106  .00023693  00000-0  86726-3 0  9991
2 66332  43.0014 355.2941 0001417 282.5065  77.5628 15.27598614 35870
Epoch: 2026-06-19T20:55Z
TLE epoch observation values (Epoch: 2026-06-19T20:55:25.339Z)
Latitude
-0.00003°
Longitude
133.34392°
Altitude
482.56 km
Speed
7.626 km/s
True Right ascension
23h 41m 10s
True Declination
0° 00' 00"
Sunlit
Object was in daylight at epoch
Visualization orbit readout
Latitude
Unknown
Longitude
Unknown
Altitude
Unknown
Speed
Unknown
Apparent Right ascension
Unknown
Apparent Declination
Unknown
Sunlit
N/A
Visualization observer readout
Local Sidereal Time
14:39:10
Azimuth
Unknown
Elevation
Unknown
Doppler factor
Unknown
Orbital elements
Apogee altitude
485.911 km
Perigee altitude
483.966 km
Semi-major axis
6,863.075 km
Eccentricity
0.00014
Inclination
43.0014°
RAAN
355.2941°
Arg. of periapsis
282.5065°
True anomaly
77.57866°
Mean anomaly
77.5628°
Eccentric anomaly
77.57073°
Mean motion
3.81738 °/min
Orbital period
94.31 mins
BSTAR
0.00086726
Loading maneuver chart data...
Computing Atmospheric mass density...
Loading historical data...
Loading historical data...
Loading historical data...
Loading historical data...
Loading historical data...
Loading historical data...
Loading historical data...

Documentation

Showing up to 5 results
|